Location: Arlington
(40.6323°N, 74.1651°W)
Time: 10:45:39
(UTC+00:00)

YAOGAN 1 - Pass Details

Date: 22 November 2019
Orbit: 619 x 621 km, 98.0° (Epoch: 12 December)

Event Time Altitude Azimuth Distance (km) Brightness Sun altitude
Rises 22:04:12 0° 115° (ESE) 2,889 5.6 -6.1°
Reaches altitude 10° 22:07:41 10° 85° (E) 1,989 4.5 -6.7°
Maximum altitude 22:09:21 12° 62° (ENE) 1,855 4.3 -7.0°
Drops below altitude 10° 22:11:01 10° 40° (NE) 1,993 4.6 -7.3°
Sets 22:14:30 0° 10° (N) 2,905 5.7 -7.9°
